LEBB

Bilbao Airport

Airport
ICAO code
LEBB
Summary
ICAO Region
EUR
ICAO Territory
Location

Bilbao, Spain,

Coordinates
43° 18' 9" N , 2° 54' 40" W
KCC
Airport WX
Low Level Turbulence
Metar
Observation
LEBB 282000Z 06005KT 010V090 9999 FEW020 SCT040 BKN060 05/03 Q1029 TEMPO RA
Station
Bilbao / Sondica
Date/Time
2023-01-28 21:00:00
Wind direction
60°
Wind speed
05 kts
Lowest cloud amount
few clouds
Temperature
5°C
Dew point
3°C
Humidity
86%
QNH
1029 hPa
Weather condition
n/a

Description

International airport serving city of Bilbao.

Climatology

Temperate Marine climate/Oceanic climate (Köppen climate classification Cfb). Moderately cool summer and comparatively warm winter with a temperature range of only 14°C. Prevailing south-westerly winds from the Atlantic Ocean.

Runways

Designator Length Width Surface Rops
10/28 2000 45 ASP Yes/Yes
12/30 2600 45 ASP Yes/Yes

Airport map

Aerial View

Airport accidents

SKYbrary Partners:

Safety knowledge contributed by: